Погода в Згожельце

Польша     51°09′07″N   15°00′55″E
темп.,
°C
ветер,
м/с
пор.,
м/с
влажн.,
%
обл.,
%
осадки,
мм/ч
давл.,
гПа
погр.,
м
27 февраля, сб
сб2701:00+3з499477 0.1 1032278
04:00+1зсз499818 0.0 1033285
07:00+2зсз579555 0.0 1034473
10:00+3зсз4790100 0.0 1035428
13:00+4зсз4685100 0.0 1036504
16:00+4зсз468485 0.0 1036585
19:00+3зсз358693 0.0 1037486
22:00+3зсз2486100 0.0 1037360
28 февраля, вс
вс2801:00+3зсз2486100 0.0 1038380
04:000з239487 0.0 103656
07:000зюз359559 0.0 1036144
10:00+4з358453 0.0 1036351
13:00+8з467242 0.0 1035642
16:00+8зсз35757 0.0 1033662
19:00+6зсз229130 0.0 103533
22:00+4зсз129544 0.0 103522
1 марта, пн
пн101:00+3зсз119522 0.0 103622
04:00+2с01950 0.0 103522
07:00+1всв00950 0.0 103622
10:00+7юв11770 0.0 1037261
13:00+11юв23550 0.0 1036620
16:00+11в23530 0.0 1034748
19:00+6в23730 0.0 103539
22:00+5юв22790 0.0 103522
2 марта, вт
вт201:00+4ююз22810 0.0 103522
04:00+3ююз22840 0.0 103422
07:00+2ю22860 0.0 103422
10:00+8ю23610 0.0 1034267
13:00+12ююв22460 0.0 1033659
16:00+12в22480 0.0 1032732
19:00+7ююв12690 0.0 103222
22:00+6ююз22690 0.0 103322
3 марта, ср
ср301:00+4ю34760 0.0 103283
04:00+3ю33810 0.0 103253
07:00+3ююз34850 0.0 103167
10:00+8юз34660 0.0 1031301
13:00+12зюз45553 0.0 1030924
16:00+12з24560 0.0 1028978
19:00+7юз23760 0.0 102829
22:00+6юз34830 0.0 102769